TimeMDT,TemperatureF,Dew PointF,Humidity,Sea Level PressureIn,VisibilityMPH,Wind Direction,Wind SpeedMPH,Gust SpeedMPH,PrecipitationIn,Events,Conditions,WindDirDegrees,DateUTC
12:53 AM,75.9,45.0,33,29.82,10.0,WSW,11.5,-,N/A,,Clear,240,2013-07-16 06:53:00
1:53 AM,72.0,46.0,40,29.83,10.0,SSW,4.6,-,N/A,,Clear,200,2013-07-16 07:53:00
2:53 AM,70.0,39.9,33,29.84,10.0,NNE,5.8,-,N/A,,Clear,20,2013-07-16 08:53:00
3:53 AM,68.0,44.1,42,29.86,10.0,WSW,6.9,-,N/A,,Clear,250,2013-07-16 09:53:00
4:53 AM,68.0,43.0,40,29.86,10.0,Calm,Calm,-,N/A,,Clear,0,2013-07-16 10:53:00
5:53 AM,64.9,44.1,47,29.89,10.0,Calm,Calm,-,N/A,,Clear,0,2013-07-16 11:53:00
6:53 AM,66.9,42.1,40,29.90,10.0,NW,4.6,-,N/A,,Clear,320,2013-07-16 12:53:00
7:53 AM,71.1,44.1,38,29.92,10.0,NW,5.8,-,N/A,,Clear,320,2013-07-16 13:53:00
8:53 AM,73.9,50.0,43,29.94,10.0,NNW,11.5,-,N/A,,Clear,340,2013-07-16 14:53:00
9:53 AM,78.1,50.0,37,29.94,10.0,Variable,5.8,-,N/A,,Clear,0,2013-07-16 15:53:00
10:53 AM,81.0,50.0,34,29.96,10.0,NW,9.2,-,N/A,,Clear,320,2013-07-16 16:53:00
11:53 AM,82.0,48.9,31,29.94,10.0,Variable,3.5,-,N/A,,Clear,0,2013-07-16 17:53:00
12:53 PM,88.0,48.9,26,29.92,10.0,East,12.7,16.1,N/A,,Clear,90,2013-07-16 18:53:00
1:53 PM,87.1,48.0,26,29.91,10.0,North,5.8,16.1,N/A,,Clear,10,2013-07-16 19:53:00
2:53 PM,91.9,46.9,21,29.88,10.0,East,12.7,27.6,N/A,,Clear,90,2013-07-16 20:53:00
3:53 PM,91.9,46.0,21,29.87,10.0,East,15.0,25.3,N/A,,Partly Cloudy,80,2013-07-16 21:53:00
4:53 PM,91.9,44.1,19,29.87,10.0,ENE,16.1,23.0,N/A,,Clear,60,2013-07-16 22:53:00
5:53 PM,87.1,43.0,21,29.88,10.0,ENE,16.1,26.5,N/A,,Clear,60,2013-07-16 23:53:00
6:53 PM,82.0,48.0,30,29.92,10.0,NNE,17.3,26.5,N/A,,Scattered Clouds,20,2013-07-17 00:53:00
7:53 PM,75.0,51.1,43,30.00,10.0,NW,10.4,-,N/A,,Mostly Cloudy,320,2013-07-17 01:53:00
8:53 PM,73.0,51.1,46,30.01,10.0,NW,4.6,-,N/A,,Clear,320,2013-07-17 02:53:00
9:53 PM,70.0,51.1,51,30.04,10.0,NE,6.9,-,N/A,,Clear,40,2013-07-17 03:53:00
10:53 PM,68.0,48.9,50,30.06,10.0,NE,8.1,-,N/A,,Scattered Clouds,40,2013-07-17 04:53:00
11:53 PM,69.1,48.0,47,30.06,10.0,Calm,Calm,-,N/A,,Overcast,0,2013-07-17 05:53:00